Weather History for KSHD - December, 2012

Change the Weather History Date:

Friday, December 7, 2012

  Actual Average Record
Temperature  
Mean Temperature 50 °F -  
Max Temperature 60 °F 48 °F 77 °F (1998)
Min Temperature 41 °F 29 °F 0 °F (2002)
Degree Days  
Heating Degree Days 15    
Moisture  
Dew Point 40 °F    
Average Humidity 71    
Maximum Humidity 92    
Minimum Humidity 56    
Precipitation  
Precipitation 0.00 in - - ()
Sea Level Pressure  
Sea Level Pressure 30.07 in    
Wind  
Wind Speed 5 mph (SSW)    
Max Wind Speed 10 mph    
Max Gust Speed -    
Visibility 10 miles    
Events Rain    
Averages and records for this station are not official NWS values.
T = Trace of Precipitation, MM = Missing Value Source: NWS Daily Summary

Daily Weather History Graph

Daily Weather History Graph

Search for Another Location

Airport or City:

Trip Planner

Search our weather history database for the weather conditions in past years. The results will help you decide how hot, cold, wet, or windy it might be!

Date:

Astronomy

Dec. 07, 2012 Rise Set
Actual Time 7:19 AM EST 4:55 PM EST
Civil Twilight 6:49 AM EST 5:24 PM EST
Nautical Twilight 6:16 AM EST 5:57 PM EST
Astronomical Twilight 5:44 AM EST 6:29 PM EST
Moon 12:41 AM EST (12/7) 12:46 PM EST (12/7)
Length of Visible Light 10h 34m
Length of Day
9h 35m
Last Quarter, 39% of the Moon is Illuminated
Dec 7
Last Quarter
Dec 13
New
Dec 20
First Quarter
Dec 28
Full
Jan 4
Last Quarter

Hourly Weather History & Observations

Time (EST) Temp. Windchill Dew Point Humidity Pressure Visibility Wind Dir Wind Speed Gust Speed Precip Events Conditions
12:15 AM 42.8 °F 40.1 °F 28.2 °F 56% 30.18 in 10.0 mi South 4.6 mph - N/A   Overcast
12:35 AM 43.2 °F 39.0 °F 28.2 °F 56% 30.17 in 10.0 mi South 6.9 mph - N/A   Mostly Cloudy
12:55 AM 43.3 °F 39.2 °F 28.4 °F 56% 30.17 in 10.0 mi South 6.9 mph - N/A   Overcast
1:15 AM 43.2 °F 37.9 °F 30.4 °F 61% 30.17 in 10.0 mi South 9.2 mph - N/A   Light Drizzle
1:35 AM 41.4 °F 37.6 °F 33.8 °F 74% 30.16 in 10.0 mi South 5.8 mph - N/A   Light Drizzle
1:55 AM 41.4 °F 39.4 °F 34.9 °F 78% 30.16 in 10.0 mi South 3.5 mph - N/A Rain Light Rain
2:15 AM 41.4 °F 38.4 °F 35.4 °F 79% 30.16 in 10.0 mi South 4.6 mph - N/A Rain Light Rain
2:35 AM 41.4 °F 37.6 °F 35.4 °F 79% 30.16 in 10.0 mi South 5.8 mph - N/A Rain Light Rain
2:55 AM 41.5 °F 39.6 °F 34.9 °F 77% 30.15 in 10.0 mi South 3.5 mph - N/A   Overcast
3:15 AM 41.9 °F 38.2 °F 34.5 °F 75% 30.14 in 10.0 mi South 5.8 mph - N/A   Overcast
3:35 AM 42.1 °F 39.2 °F 34.2 °F 74% 30.14 in 10.0 mi South 4.6 mph - N/A   Overcast
3:55 AM 42.4 °F 38.8 °F 34.2 °F 72% 30.13 in 10.0 mi South 5.8 mph - N/A   Overcast
4:15 AM 42.8 °F 38.6 °F 34.0 °F 71% 30.13 in 10.0 mi South 6.9 mph - N/A   Overcast
4:35 AM 43.2 °F 39.0 °F 34.0 °F 70% 30.12 in 10.0 mi South 6.9 mph - N/A   Overcast
4:55 AM 43.3 °F 38.6 °F 34.0 °F 70% 30.12 in 10.0 mi South 8.1 mph - N/A   Overcast
5:15 AM 43.7 °F 39.7 °F 34.2 °F 69% 30.12 in 10.0 mi South 6.9 mph - N/A   Overcast
5:35 AM 43.7 °F 40.3 °F 34.0 °F 69% 30.11 in 10.0 mi South 5.8 mph - N/A   Overcast
5:55 AM 43.7 °F - 34.0 °F 69% 30.11 in 10.0 mi Calm Calm - N/A   Overcast
6:15 AM 43.3 °F - 34.2 °F 70% 30.11 in 10.0 mi Calm Calm - N/A   Mostly Cloudy
6:35 AM 43.3 °F 41.7 °F 34.5 °F 71% 30.11 in 10.0 mi SSW 3.5 mph - N/A   Clear
6:55 AM 43.5 °F 41.9 °F 34.5 °F 71% 30.11 in 10.0 mi South 3.5 mph - N/A   Mostly Cloudy
7:15 AM 43.9 °F 39.9 °F 34.3 °F 69% 30.12 in 10.0 mi South 6.9 mph - N/A   Mostly Cloudy
7:35 AM 43.2 °F 41.5 °F 34.3 °F 71% 30.13 in 10.0 mi South 3.5 mph - N/A   Scattered Clouds
7:55 AM 42.8 °F 41.1 °F 34.5 °F 73% 30.13 in 10.0 mi South 3.5 mph - N/A   Scattered Clouds
8:15 AM 43.0 °F 41.3 °F 34.7 °F 73% 30.13 in 10.0 mi South 3.5 mph - N/A   Scattered Clouds
8:35 AM 44.1 °F 41.5 °F 34.9 °F 70% 30.13 in 10.0 mi South 4.6 mph - N/A   Mostly Cloudy
8:55 AM 45.3 °F 44.0 °F 35.6 °F 69% 30.13 in 10.0 mi South 3.5 mph - N/A   Mostly Cloudy
9:15 AM 45.7 °F 44.4 °F 35.6 °F 68% 30.12 in 10.0 mi SSE 3.5 mph - N/A   Mostly Cloudy
9:35 AM 46.4 °F 43.5 °F 35.8 °F 67% 30.12 in 10.0 mi South 5.8 mph - N/A   Mostly Cloudy
9:55 AM 47.7 °F - 36.5 °F 65% 30.13 in 10.0 mi Calm Calm - N/A   Mostly Cloudy
10:15 AM 48.2 °F - 37.4 °F 66% 30.12 in 10.0 mi SSW 4.6 mph - N/A   Scattered Clouds
10:35 AM 49.5 °F - 38.5 °F 66% 30.11 in 10.0 mi SSW 3.5 mph - N/A   Mostly Cloudy
10:55 AM 51.1 °F - 39.6 °F 65% 30.10 in 10.0 mi SSW 3.5 mph - N/A   Overcast
11:15 AM 52.3 °F - 40.8 °F 65% 30.10 in 10.0 mi SSE 3.5 mph - N/A   Mostly Cloudy
11:35 AM 54.7 °F - 42.3 °F 63% 30.08 in 10.0 mi SW 6.9 mph - N/A   Scattered Clouds
11:55 AM 56.3 °F - 43.3 °F 62% 30.08 in 10.0 mi SW 5.8 mph - N/A   Clear
12:15 PM 57.0 °F - 43.5 °F 61% 30.06 in 10.0 mi SW 8.1 mph - N/A   Clear
12:35 PM 58.8 °F - 44.8 °F 60% 30.05 in 10.0 mi SW 9.2 mph - N/A   Clear
12:55 PM 59.2 °F - 45.1 °F 60% 30.04 in 10.0 mi WSW 9.2 mph - N/A   Scattered Clouds
1:15 PM 59.2 °F - 45.9 °F 61% 30.04 in 10.0 mi SW 9.2 mph - N/A   Mostly Cloudy
1:35 PM 59.4 °F - 46.2 °F 62% 30.03 in 10.0 mi SW 10.4 mph - N/A   Mostly Cloudy
1:55 PM 59.4 °F - 46.4 °F 62% 30.02 in 10.0 mi SW 9.2 mph - N/A   Scattered Clouds
2:15 PM 59.5 °F - 46.4 °F 62% 30.02 in 10.0 mi WSW 9.2 mph - N/A   Scattered Clouds
2:35 PM 59.4 °F - 46.4 °F 62% 30.02 in 10.0 mi WSW 8.1 mph - N/A   Mostly Cloudy
2:55 PM 59.7 °F - 46.8 °F 62% 30.01 in 10.0 mi WSW 6.9 mph - N/A   Overcast
3:15 PM 59.9 °F - 46.9 °F 62% 30.01 in 10.0 mi SW 5.8 mph - N/A   Overcast
3:35 PM 59.9 °F - 47.3 °F 63% 30.00 in 10.0 mi SW 3.5 mph - N/A   Mostly Cloudy
3:55 PM 59.9 °F - 48.6 °F 66% 30.00 in 10.0 mi SSW 5.8 mph - N/A   Mostly Cloudy
4:15 PM 59.2 °F - 48.7 °F 68% 30.00 in 10.0 mi SSW 4.6 mph - N/A   Overcast
4:35 PM 58.5 °F - 48.4 °F 69% 30.01 in 10.0 mi SSW 5.8 mph - N/A   Overcast
4:55 PM 57.9 °F - 48.4 °F 71% 30.00 in 10.0 mi SSW 4.6 mph - N/A   Scattered Clouds
5:15 PM 56.1 °F - 46.4 °F 70% 30.00 in 10.0 mi SSW 3.5 mph - N/A   Clear
5:35 PM 54.1 °F - 45.5 °F 73% 29.99 in 10.0 mi SW 4.6 mph - N/A   Clear
5:55 PM 53.4 °F - 44.6 °F 72% 30.00 in 10.0 mi South 3.5 mph - N/A   Clear
6:15 PM 52.3 °F - 44.2 °F 74% 30.00 in 10.0 mi SSW 4.6 mph - N/A   Clear
6:35 PM 52.2 °F - 44.4 °F 75% 30.00 in 10.0 mi SW 4.6 mph - N/A   Mostly Cloudy
6:55 PM 51.8 °F - 44.2 °F 75% 30.00 in 10.0 mi Calm Calm - N/A   Mostly Cloudy
7:15 PM 50.9 °F - 43.9 °F 77% 29.99 in 10.0 mi Calm Calm - N/A   Scattered Clouds
7:35 PM 50.5 °F - 43.7 °F 77% 29.99 in 10.0 mi South 3.5 mph - N/A   Clear
8:15 PM 50.9 °F - 44.2 °F 78% 30.00 in 10.0 mi Calm Calm - N/A   Scattered Clouds
8:35 PM 50.4 °F - 43.9 °F 78% 29.99 in 10.0 mi South 3.5 mph - N/A   Scattered Clouds
8:55 PM 49.3 °F - 43.7 °F 81% 29.99 in 10.0 mi Calm Calm - N/A   Scattered Clouds
9:35 PM 48.2 °F - 43.7 °F 84% 29.99 in 10.0 mi WSW 3.5 mph - N/A   Scattered Clouds
9:55 PM 47.7 °F - 43.9 °F 87% 29.99 in 10.0 mi Calm Calm - N/A   Scattered Clouds
10:15 PM 47.3 °F - 43.3 °F 86% 29.98 in 10.0 mi Calm Calm - N/A   Mostly Cloudy
10:35 PM 47.5 °F - 44.1 °F 88% 29.98 in 10.0 mi Calm Calm - N/A   Clear
10:55 PM 48.7 °F - 45.0 °F 87% 29.98 in 10.0 mi Calm Calm - N/A   Clear
11:15 PM 48.6 °F - 44.8 °F 87% 29.98 in 10.0 mi South 3.5 mph - N/A   Clear
11:35 PM 47.7 °F - 44.6 °F 89% 29.97 in 10.0 mi Calm Calm - N/A   Clear
11:55 PM 46.8 °F - 44.4 °F 92% 29.97 in 7.0 mi Calm Calm - N/A   Clear